Вернуться в каталог

STARLINK-3301

АктивенСвязьVLEO
NORAD 50169·PAYLOAD·🇺🇸 United States

Запущен Dec 18, 2021 с Vandenberg Space Force Base

Loading…

Ближайшие Пролёты (ближайшие 24 часа)

TLE

СвежийSource: CelesTrak SupGP

Эпоха: Sep 14, 2026, 22:17 UTC

1 50169C 21125P   26257.92895833  .00016837  00000+0  49768-3 0  2579
2 50169  53.1591 104.0106 0001337  82.8619  34.8388 15.34367206    19

Отслеживайте STARLINK-3301 в реальном времени с AllMySat

Download on the App Store